Location: Arcones
(41.1182°N, 3.7238°W)
Time: 22:25:32
(UTC+00:00)

IRAS Rocket - Visible Passes

Search period start: 14 March 2026 00:00
Search period end: 24 March 2026 00:00
Orbit: 845 x 876 km, 100.1° (Epoch: 14 March)

Date Brightness Start Highest point End Pass type
(mag) Time Alt. Az. Time Alt. Az. Time Alt. Az.
14 Mar 5.2 18:43:13 10° ESE 18:47:51 28° ENE 18:52:30 10° N visible
14 Mar 5.3 20:23:03 10° S 20:28:21 43° W 20:33:40 10° NNW visible
15 Mar 5.0 20:13:52 10° S 20:19:19 52° WSW 20:24:47 10° NNW visible
16 Mar 4.6 20:04:44 10° S 20:10:17 64° WSW 20:15:51 10° NNW visible
17 Mar 4.4 19:55:41 10° SSE 20:01:17 77° WSW 20:06:53 10° NNW visible
18 Mar 4.2 19:46:40 10° SSE 19:52:17 89° ENE 19:57:53 10° NNW visible
18 Mar 7.0 21:31:45 10° WSW 21:33:41 12° W 21:35:37 10° WNW visible
19 Mar 4.2 19:37:43 10° SSE 19:43:17 75° ENE 19:48:51 10° NNW visible
19 Mar 6.9 21:21:32 10° SW 21:24:33 15° W 21:27:34 10° WNW visible
20 Mar 4.3 19:28:49 10° SSE 19:34:19 62° ENE 19:39:49 10° N visible
20 Mar 6.7 21:11:43 10° SW 21:15:26 18° W 21:19:10 10° NW visible
21 Mar 4.4 19:19:58 10° SE 19:25:21 51° ENE 19:30:44 10° N visible
21 Mar 6.4 21:02:07 10° SW 21:06:20 22° W 21:10:35 10° NW visible
22 Mar 4.7 19:11:10 10° SE 19:16:24 43° ENE 19:21:37 10° N visible
22 Mar 6.1 20:52:38 10° SSW 20:57:15 26° W 21:01:53 10° NW visible
23 Mar 4.9 19:02:26 10° SE 19:07:28 36° ENE 19:12:29 10° N visible
23 Mar 5.8 20:43:15 10° SSW 20:48:11 32° W 20:53:07 10° NW visible
